Terminal Aerodrome Forecast
Issued by NWS Mobile, AL

Home | Current Version | Previous Version | Text Only | Print | Product List | Glossary On
Versions: 1 2 3 4 5 6 7 8 9 10 11 12 13 14 15 16 17 18 19 20 21 22 23 24 25 26 27 28 29 30 31 32 33 34 35 36 37 38 39 40 41 42 43
109
FTUS44 KMOB 180446 AAC
TAFPNS
TAF AMD
KPNS 180446Z 1805/1824 00000KT 1/4SM FG VV002
     FM180600 VRB03KT 1/4SM FG BKN005 OVC015
     FM181600 18005KT P6SM BKN015=

USA.gov is the U.S. government's official web portal to all federal, state and local government web resources and services.